Location: Unspecified
(0.0000°N, 0.0000°E)
Time: 13:34:38
(UTC+00:00)

SKYMED 4 - Visible Passes

Search period start: 16 August 2017 00:00
Search period end: 26 August 2017 00:00
Orbit: 621 x 623 km, 97.9° (Epoch: 16 August)

Date Brightness Start Highest point End Pass type
(mag) Time Alt. Az. Time Alt. Az. Time Alt. Az.
18 Aug 8.5 04:45:01 10° ESE 04:47:03 13° ENE 04:49:04 10° NE visible
18 Aug 8.4 18:28:49 10° NNW 18:31:51 19° WNW 18:34:54 10° WSW visible
19 Aug 7.7 05:01:34 10° SE 05:05:01 23° ENE 05:08:28 10° NNE visible
19 Aug 9.1 18:49:11 10° WNW 18:49:50 10° WNW 18:50:28 10° W visible
20 Aug 6.6 05:18:54 10° SSE 05:23:00 42° ENE 05:27:04 10° N visible
21 Aug 5.3 05:36:38 10° SSE 05:40:59 79° ENE 05:45:17 10° N visible
23 Aug 8.8 04:40:07 10° E 04:41:02 11° ENE 04:41:58 10° ENE visible
23 Aug 8.1 18:22:26 10° NNW 18:25:51 23° WNW 18:29:16 10° SW visible
24 Aug 8.1 04:55:54 10° SE 04:59:00 19° ENE 05:02:06 10° NNE visible
24 Aug 8.8 18:41:53 10° NW 18:43:49 13° WNW 18:45:45 10° WSW visible
25 Aug 7.0 05:13:03 10° SE 05:16:58 34° E 05:20:54 10° NNE visible
